Regional Weather Roundup
Issued by NWS

Home | Current Version | Previous Version | Graphics & Text | Print | Product List | Glossary On
Versions: 1 2 3 4 5 6 7 8 9 10 11 12 13 14 15 16 17 18 19 20 21 22 23 24 25 26 27 28 29 30 31 32 33 34 35 36 37 38 39 40 41 42 43 44 45 46 47 48 49 50
000
ASUS43 KDTX 050710
RWRMI
MICHIGAN HOURLY REGIONAL WEATHER ROUNDUP
NATIONAL WEATHER SERVICE DETROIT/PONTIAC MI
200 AM EST THU MAR 05 2015

NOTE: "FAIR" INDICATES FEW OR NO CLOUDS BELOW 12,000 FEET WITH NO
SIGNIFICANT WEATHER AND/OR OBSTRUCTION TO VISIBILITY.

MIZ047>049-052>055-059>063-066>070-074>076-081>083-050800-
SOUTHEAST LOWER MICHIGAN

CITY           SKY/WX    TMP DP  RH WIND       PRES   REMARKS
ADRIAN         CLOUDY    14   0  53 N7        30.27F
ALMA           CLEAR      6   0  74 N7        30.30S
ANN ARBOR      CLOUDY    14   0  53 N8        30.26S
BAD AXE        CLEAR      6  -4  63 N12       30.28S WCI  -9
DETROIT CITY   CLOUDY    17  -1  45 NW10      30.27R
DETROIT        CLOUDY    16  -1  47 NW15G23   30.28S
FLINT          MOCLDY    11   0  61 NW7       30.29R
GROSSE ILE     CLOUDY    16  -2  45 NW9G18    30.28R
HILLSDALE      CLOUDY    13  -2  51 N8        30.23F
HOWELL         MOCLDY    11  -1  59 NW6       30.25S

CITY           SKY/WX    TMP DP  RH WIND       PRES   REMARKS
JACKSON        MOCLDY    11  -2  56 N6        30.26R
LAMBERTVILLE   CLOUDY    18   1  49 N7        30.28S
LANSING        CLEAR      8  -3  61 NW6       30.28R
LAPEER         NOT AVBL
MASON          PTCLDY    10  -1  59 NW6       30.26S
MT. CLEMENS    CLOUDY    14   1  56 N14       30.26R WCI  -1
PONTIAC        CLOUDY    11   1  64 NW9       30.25R
PORT HOPE        N/A      8  -4  58 NW13G24   30.28R WCI  -8
PORT HURON     CLOUDY    12   0  57 NW9       30.28R
TRI CITIES     CLEAR      5  -3  69 N10       30.31R WCI -10
YPSILANTI      CLOUDY    17   0  47 N18       30.28R
$$
MIZ043>046-050>051-056>058-064>065-071>073-077>080-050800-
SOUTHWEST LOWER MICHIGAN

CITY           SKY/WX    TMP DP  RH WIND       PRES   REMARKS
BATTLE CREEK   PTCLDY    11  -3  53 N6        30.28R
BENTON HARBOR  MOCLDY    15   5  64 VRB5      30.31R
BIG RAPIDS     PTCLDY     4  -1  79 CALM      30.29R
COLDWATER      MOCLDY    13  -2  51 N7        30.28R
HOLLAND        PTCLDY    12   4  70 N5        30.32R
GRAND RAPIDS   CLEAR      9  -3  58 NW8       30.29S
KALAMAZOO      PTCLDY     9  -1  64 N5        30.29S
MARSHALL       PTCLDY    10  -3  54 CALM      30.27S
MUSKEGON       PTCLDY    10   1  67 NW6       30.32S
$$
MIZ016>042-050800-
NORTHERN LOWER MICHIGAN

CITY           SKY/WX    TMP DP  RH WIND       PRES   REMARKS
ALPENA         CLEAR      0  -8  69 W5        30.31R
BEAVER ISLAND  CLEAR      1  -6  75 W3        30.29F
BELLAIRE       CLEAR    -10 -14  81 CALM      30.32S
CADILLAC       CLEAR     -5 -11  75 CALM      30.24S
CHARLEVOIX     CLEAR      1  -7  68 CALM      30.33S
FRANKFORT      CLOUDY     9   1  69 N5        30.33R HAZE
GAYLORD        CLEAR     -7 -11  83 W5        30.23R
GRAYLING       CLEAR    -15 -20  76 CALM      30.27R
HARBOR SPRINGS CLEAR     -5 -12  75 S3        30.29S
HOUGHTON LAKE  CLEAR     -6 -11  79 CALM      30.26S
MANISTEE       CLOUDY     9   1  72 E8        30.32R
OSCODA         CLEAR      1  -8  66 W5        30.31R
PELLSTON       CLEAR    -11 -15  82 CALM      30.30R
TRAVERSE CITY  PTCLDY    -2  -6  83 CALM      30.31R
$$
MIZ007>008-015-050800-
EASTERN UPPER MICHIGAN

CITY           SKY/WX    TMP DP  RH WIND       PRES   REMARKS
KINROSS        MOCLDY    -6  -8  92 SW6       30.27R
MACKINAC ISLAN CLEAR     -3  -8  79 W8        30.27R
NEWBERRY       CLEAR     -7  -8  93 W6        30.25R
S. S. MARIE    CLEAR     -4  -9  79 W5        30.27R
$$
MIZ004>006-011>014-085-050800-
CENTRAL UPPER MICHIGAN

CITY           SKY/WX    TMP DP  RH WIND       PRES   REMARKS
MANISTIQUE     CLEAR     -4  -9  77 NW8       30.28F
ESCANABA       CLEAR     -4 -13  65 W7        30.32S
MENOMINEE      CLEAR      0 -11  60 CALM      30.35R
SAWYER-GWINN   CLEAR     -7 -12  78 W7        30.23S
$$
MIZ001>003-009>011-084-050800-
WESTERN UPPER MICHIGAN

CITY           SKY/WX    TMP DP  RH WIND       PRES   REMARKS
IRON MOUNTAIN  CLEAR     -7 -15  68 NW3       30.26S
HOUGHTON       CLEAR    -13 -19  75 NW8       30.26S
COPPER HARBOR    N/A      2  -7  66 NW7       30.29R
IRONWOOD       MOCLDY    -4  -9  77 W8        30.27S
$$

ABBREVIATIONS USED IN REMARKS
   TC - TEMPERATURE IN CELSIUS
  WCI - WIND CHILL INDEX
   HX - HEAT INDEX
  VSB - VISIBILITY




USA.gov is the U.S. government's official web portal to all federal, state and local government web resources and services.